Regional Weather Roundup
Issued by NWS New Orleans/Baton Rouge, LA

Home | Current Version | Previous Version | Graphics & Text | Print | Product List | Glossary On
Versions: 1 2 3 4 5 6 7 8 9 10 11 12 13 14 15 16 17 18 19 20 21 22 23 24 25 26 27 28 29 30 31 32 33 34 35 36 37 38 39 40 41 42 43 44 45 46 47 48 49 50
676
ASUS44 KLIX 040305
RWRLIX
NEW ORLEANS REGIONAL WEATHER ROUNDUP
NATIONAL WEATHER SERVICE NEW ORLEANS LA
900 PM CST TUE MAR 03 2015

NOTE: "FAIR" INDICATES FEW OR NO CLOUDS BELOW 12,000 FEET WITH NO
      SIGNIFICANT WEATHER AND/OR OBSTRUCTIONS TO VISIBILITY.
      SKY/WX - SKY CONDITION AND SIGNIFICANT WEATHER.
      TMP - AIR TEMPERATURE.     DP    - DEWPOINT TEMPERATURE.
      RH  - RELATIVE HUMIDITY.   PRES  - PRESSURE.
      HI  - HEAT INDEX.          WCI   - WIND CHILL INDEX.

*  THESE STATIONS ARE NOT NWS OR FAA STATIONS AND ARE NOT UNDER
   NWS QUALITY CONTROL.

LAZ038-040-048-061>063-065>067-069-040400-
SOUTHEAST LOUISIANA

CITY           SKY/WX    TMP DP  RH WIND       PRES   REMARKS
N.O. AUDUBON     N/A     70  70  99 MISG        N/A
N.O. INTL ARPT PTCLDY    70  65  84 SE9       30.01S
N.O. LAKEFRONT MOCLDY    70  66  87 SE8       30.02S
SLIDELL        CLOUDY    68  67  96 SE9       30.02S
BATON ROUGE    PTCLDY    69  67  93 SE6       29.98S
BOOTHVILLE     FOG       67  66  97 SE7       30.03S VSB 1/2
BELLE CHASSE   MOCLDY    70  65  84 SE7       30.01S
BOGALUSA*        N/A     70  65  84 S10       30.03F
GALLIANO*      MOCLDY    72  69  89 SE5       30.02S
NEW ROADS*     CLOUDY    70  67  91 SE5       29.98R
GONZALES*        N/A     70  70 100 SE7       29.98F
HAMMOND*       CLOUDY    68  61  77 SE7       30.02S
HOUMA*         CLOUDY    71  68  92 SE8       30.00F FOG
PORT FOURCHON* MOCLDY    70  68  94 SE7       30.05S

$$

MSZ070-080>082-040400-
SOUTHERN MISSISSIPPI

CITY           SKY/WX    TMP DP  RH WIND       PRES   REMARKS
MCCOMB         CLOUDY    67  65  93 S8        30.00R
GULFPORT       CLOUDY    64  63  96 SE10      30.04S FOG
BILOXI         PTCLDY    66  66 100 SE8       30.04S
PASCAGOULA     CLOUDY    65  63  93 SE8       30.06S

$$

COASTAL OBSERVATIONS
LAKE AND NEARSHORE STATIONS

STATION/POSITION TIME  TEMP    WIND        PRES    WAVE
                       AIR SEA DIR/SP/G            HT/PER
                 (UTC) (F)     (DEG/KT/KT) (MB)    (FT/S)
PASCAGOULA       0300   64     120/  4/  8 1017.5
WAVELAND YACHT   0300   63 59  140/  9/ 12 1016.8
GRAND ISLE       0300   68 64  150/  4/  7 1017.1
SOUTHWEST PASS   0300   64 47  150/  7/ 10 1017.0
NEW CANAL        0300   70     140/  3/  5 1016.7
SHELL BEACH      0300   68 63  140/ 10/ 14 1016.7

OFFSHORE STATIONS

STATION/POSITION TIME  TEMP    WIND        PRES    WAVE
                       AIR SEA DIR/SP/G            HT/PER
                 (UTC) (F)     (DEG/KT/KT) (MB)    (FT/S)
64 S DAUPHIN ISL 0248   71 71  140/ 19/ 23 1017.6    4/ 4

$$




USA.gov is the U.S. government's official web portal to all federal, state and local government web resources and services.